Change the Weather History Date:

Wednesday, January 22, 2014

  Actual Average Record
Temperature  
Mean Temperature 60 °F -  
Max Temperature 66 °F - - ()
Min Temperature 53 °F - - ()
Degree Days  
Heating Degree Days 6    
Growing Degree Days 10 (Base 50)    
Moisture  
Dew Point 41 °F    
Average Humidity 49    
Maximum Humidity 59    
Minimum Humidity 38    
Precipitation  
Precipitation 0.00 in - - ()
Sea Level Pressure  
Sea Level Pressure 30.18 in    
Wind  
Wind Speed 12 mph (ESE)    
Max Wind Speed 20 mph    
Max Gust Speed 22 mph    
Visibility 10 miles    
Events      
T = Trace of Precipitation, MM = Missing Value Source: NWS Daily Summary

Daily Weather History Graph

Daily Weather History Graph

Search for Another Location

Airport or City:

Trip Planner

Search our weather history database for the weather conditions in past years. The results will help you decide how hot, cold, wet, or windy it might be!

Date:

Astronomy

Jan. 22, 2014 Rise Set
Actual Time 7:03 AM CST 5:43 PM CST
Civil Twilight 6:38 AM CST 6:08 PM CST
Nautical Twilight 6:09 AM CST 6:36 PM CST
Astronomical Twilight 5:41 AM CST 7:04 PM CST
Moon 11:39 PM CST (1/22) 10:38 AM CST (1/22)
Length of Visible Light 11h 29m
Length of Day
10h 39m
Waning Gibbous, 65% of the Moon is Illuminated
Jan 22
Waning Gibbous
Jan 23
Last Quarter
Jan 30
New
Feb 6
First Quarter
Feb 14
Full

Hourly Weather History & Observations

Time (CST) Temp. Dew Point Humidity Pressure Visibility Wind Dir Wind Speed Gust Speed Precip Events Conditions
12:15 AM 55.4 °F 30.2 °F 38% 30.22 in 10.0 mi North 16.1 mph - N/A   Unknown
12:35 AM 55.4 °F 30.2 °F 38% 30.21 in 10.0 mi North 15.0 mph - N/A   Unknown
12:55 AM 55.4 °F 32.0 °F 41% 30.21 in 10.0 mi NNE 13.8 mph - N/A   Mostly Cloudy
1:15 AM 55.4 °F 30.2 °F 38% 30.21 in 10.0 mi North 13.8 mph - N/A   Unknown
1:35 AM 55.4 °F 30.2 °F 38% 30.21 in 10.0 mi North 13.8 mph - N/A   Unknown
1:55 AM 55.4 °F 32.0 °F 41% 30.21 in 10.0 mi NNE 15.0 mph - N/A   Unknown
2:15 AM 55.4 °F 32.0 °F 41% 30.21 in 10.0 mi NNE 12.7 mph - N/A   Unknown
2:35 AM 53.6 °F 32.0 °F 44% 30.21 in 10.0 mi North 12.7 mph - N/A   Unknown
2:55 AM 53.6 °F 32.0 °F 44% 30.21 in 10.0 mi North 10.4 mph - N/A   Unknown
3:15 AM 53.6 °F 32.0 °F 44% 30.20 in 10.0 mi NNE 10.4 mph - N/A   Unknown
3:35 AM 53.6 °F 32.0 °F 44% 30.21 in 10.0 mi North 9.2 mph - N/A   Unknown
3:55 AM 53.6 °F 32.0 °F 44% 30.20 in 10.0 mi North 10.4 mph - N/A   Unknown
4:15 AM 53.6 °F 32.0 °F 44% 30.20 in 10.0 mi NNE 11.5 mph - N/A   Unknown
4:35 AM 53.6 °F 32.0 °F 44% 30.20 in 10.0 mi NNE 10.4 mph - N/A   Unknown
4:55 AM 53.6 °F 35.6 °F 51% 30.20 in 10.0 mi NNE 11.5 mph - N/A   Unknown
5:15 AM 53.6 °F 33.8 °F 47% 30.20 in 10.0 mi NE 10.4 mph - N/A   Unknown
5:35 AM 53.6 °F 32.0 °F 44% 30.20 in 10.0 mi NE 11.5 mph - N/A   Unknown
5:55 AM 53.6 °F 32.0 °F 44% 30.19 in 10.0 mi NNE 12.7 mph - N/A   Unknown
6:15 AM 53.6 °F 32.0 °F 44% 30.20 in 10.0 mi NE 10.4 mph - N/A   Unknown
6:35 AM 53.6 °F 32.0 °F 44% 30.21 in 10.0 mi NE 9.2 mph - N/A   Unknown
6:55 AM 53.6 °F 32.0 °F 44% 30.21 in 10.0 mi ENE 9.2 mph - N/A   Unknown
7:15 AM 53.6 °F 32.0 °F 44% 30.21 in 10.0 mi ENE 8.1 mph - N/A   Unknown
7:35 AM 53.6 °F 33.8 °F 47% 30.21 in 10.0 mi NE 8.1 mph - N/A   Unknown
7:55 AM 53.6 °F 35.6 °F 51% 30.22 in 10.0 mi East 8.1 mph - N/A   Unknown
8:15 AM 53.6 °F 33.8 °F 47% 30.23 in 10.0 mi East 5.8 mph - N/A   Unknown
8:35 AM 55.4 °F 33.8 °F 44% 30.24 in 10.0 mi East 5.8 mph - N/A   Unknown
8:55 AM 55.4 °F 35.6 °F 47% 30.24 in 10.0 mi East 6.9 mph - N/A   Unknown
9:15 AM 55.4 °F 33.8 °F 44% 30.24 in 10.0 mi SE 5.8 mph - N/A   Unknown
9:35 AM 57.2 °F 35.6 °F 44% 30.24 in 10.0 mi ESE 4.6 mph 11.5 mph N/A   Unknown
9:55 AM 57.2 °F 35.6 °F 44% 30.24 in 10.0 mi ESE 8.1 mph - N/A   Unknown
10:15 AM 59.0 °F 35.6 °F 42% 30.24 in 10.0 mi SE 6.9 mph - N/A   Unknown
10:35 AM 59.0 °F 35.6 °F 42% 30.24 in 10.0 mi SE 8.1 mph - N/A   Unknown
10:55 AM 60.8 °F 37.4 °F 42% 30.24 in 10.0 mi SSE 8.1 mph - N/A   Unknown
11:15 AM 60.8 °F 39.2 °F 45% 30.23 in 10.0 mi SSE 9.2 mph - N/A   Unknown
11:35 AM 60.8 °F 39.2 °F 45% 30.22 in 10.0 mi SSE 8.1 mph - N/A   Unknown
11:55 AM 62.6 °F 41.0 °F 45% 30.21 in 10.0 mi SSE 9.2 mph - N/A   Unknown
12:15 PM 62.6 °F 42.8 °F 48% 30.20 in 10.0 mi South 8.1 mph - N/A   Unknown
12:35 PM 62.6 °F 42.8 °F 48% 30.19 in 10.0 mi South 9.2 mph - N/A   Partly Cloudy
12:55 PM 64.4 °F 42.8 °F 45% 30.18 in 10.0 mi South 8.1 mph 13.8 mph N/A   Partly Cloudy
1:15 PM 64.4 °F 44.6 °F 49% 30.17 in 10.0 mi South 10.4 mph - N/A   Partly Cloudy
1:35 PM 64.4 °F 44.6 °F 49% 30.16 in 10.0 mi South 9.2 mph - N/A   Partly Cloudy
1:55 PM 64.4 °F 44.6 °F 49% 30.16 in 10.0 mi Variable 6.9 mph 13.8 mph N/A   Clear
2:15 PM 66.2 °F 44.6 °F 46% 30.15 in 10.0 mi South 11.5 mph - N/A   Clear
2:35 PM 66.2 °F 46.4 °F 49% 30.15 in 10.0 mi South 10.4 mph - N/A   Clear
2:55 PM 66.2 °F 46.4 °F 49% 30.14 in 10.0 mi South 12.7 mph - N/A   Clear
3:15 PM 66.2 °F 46.4 °F 49% 30.14 in 10.0 mi South 11.5 mph - N/A   Clear
3:35 PM 66.2 °F 48.2 °F 52% 30.13 in 10.0 mi South 10.4 mph 16.1 mph N/A   Unknown
3:55 PM 66.2 °F 48.2 °F 52% 30.13 in 10.0 mi Variable 6.9 mph 12.7 mph N/A   Unknown
4:15 PM 66.2 °F 48.2 °F 52% 30.13 in 10.0 mi Variable 5.8 mph 13.8 mph N/A   Clear
4:35 PM 66.2 °F 48.2 °F 52% 30.13 in 10.0 mi South 9.2 mph - N/A   Partly Cloudy
4:55 PM 66.2 °F 50.0 °F 56% 30.13 in 10.0 mi South 11.5 mph - N/A   Scattered Clouds
5:15 PM 64.4 °F 50.0 °F 59% 30.12 in 10.0 mi South 12.7 mph - N/A   Scattered Clouds
5:35 PM 64.4 °F 50.0 °F 59% 30.13 in 10.0 mi SSE 9.2 mph - N/A   Unknown
5:55 PM 64.4 °F 50.0 °F 59% 30.13 in 10.0 mi SSE 9.2 mph 16.1 mph N/A   Unknown
6:15 PM 64.4 °F 50.0 °F 59% 30.13 in 10.0 mi SSE 12.7 mph - N/A   Unknown
6:35 PM 64.4 °F 50.0 °F 59% 30.14 in 10.0 mi South 10.4 mph - N/A   Unknown
6:55 PM 64.4 °F 50.0 °F 59% 30.12 in 10.0 mi SSE 11.5 mph - N/A   Unknown
7:15 PM 64.4 °F 48.2 °F 56% 30.12 in 10.0 mi SE 13.8 mph - N/A   Unknown
7:35 PM 64.4 °F 50.0 °F 59% 30.13 in 10.0 mi SSE 12.7 mph 19.6 mph N/A   Unknown
7:55 PM 64.4 °F 48.2 °F 56% 30.13 in 10.0 mi SSE 13.8 mph - N/A   Unknown
8:15 PM 66.2 °F 48.2 °F 52% 30.13 in 10.0 mi SSE 16.1 mph - N/A   Unknown
8:35 PM 66.2 °F 48.2 °F 52% 30.14 in 10.0 mi SSE 11.5 mph - N/A   Unknown
8:55 PM 64.4 °F 48.2 °F 56% 30.14 in 10.0 mi South 13.8 mph - N/A   Unknown
9:15 PM 66.2 °F 48.2 °F 52% 30.14 in 10.0 mi SSE 17.3 mph - N/A   Unknown
9:35 PM 64.4 °F 48.2 °F 56% 30.13 in 10.0 mi South 15.0 mph - N/A   Unknown
9:55 PM 66.2 °F 48.2 °F 52% 30.13 in 10.0 mi SSE 16.1 mph - N/A   Mostly Cloudy
10:15 PM 66.2 °F 48.2 °F 52% 30.12 in 10.0 mi South 18.4 mph - N/A   Unknown
10:35 PM 66.2 °F 50.0 °F 56% 30.14 in 10.0 mi SSE 13.8 mph 21.9 mph N/A   Unknown
10:55 PM 66.2 °F 50.0 °F 56% 30.13 in 10.0 mi SSE 17.3 mph - N/A   Unknown
11:15 PM 66.2 °F 50.0 °F 56% 30.13 in 10.0 mi SSE 17.3 mph - N/A   Unknown
11:35 PM 66.2 °F 50.0 °F 56% 30.13 in 10.0 mi SSE 19.6 mph - N/A   Unknown
11:55 PM 66.2 °F 50.0 °F 56% 30.14 in 10.0 mi SSE 16.1 mph 21.9 mph N/A   Unknown